Location: Newark
(48.6461°N, 4.3644°W)
Time: 02:01:53
(UTC+00:00)

S-56A Canister/Altair - Pass Details

Date: 24 January 2020
Orbit: 633 x 2500 km, 38.9° (Epoch: 25 February)

Event Time Altitude Azimuth Distance (km) Brightness Sun altitude
Rises 19:08:59 0° 200° (SSW) 4,239 11.7 -20.7°
Reaches altitude 10° 19:15:06 10° 165° (SSE) 2,755 10.3 -21.7°
Maximum altitude 19:16:20 11° 154° (SSE) 2,618 10.0 -21.9°
Enters shadow 19:16:42 11° 150° (SSE) 2,593 10.0 -22.0°
Drops below altitude 10° 19:17:30 10° 143° (SE) 2,569 - -22.1°
Sets 19:22:10 0° 104° (ESE) 3,184 - -22.9°
